Flag for U.S.A. Weather past 2 weeks in Oakland, California, U.S.A.

Now
61 °F

Scattered clouds.


Feels Like: 61 °F
Forecast: 54 / 65 °F
Wind: 13 mph from Northwest

Location: Metro Oakland International Airport

Current Time: May 27, 2015 at 1:29:29 PM

Latest Report: May 27, 2015 at 12:53 PM


Visibility: 10 mi

Pressure: 30.04 "Hg

Humidity: 67%

Dew point: 50 °F

Location of OaklandLocation

Historic Weather in Oakland — Graph

°F

Oakland temperature yesterday

Maximum temperature yesterday: 64 °F (at 3:53 PM)
Minimum temperature yesterday: 53 °F (at 3:53 AM)
Average temperature yesterday: 57 °F

Past Weeks' High & Low Weather Summary

 TemperatureHumidityPressure
High65 °F (May 14, 12:53 PM)90% (May 20, 10:53 PM)30.12 "Hg (May 20, 10:53 PM)
Low52 °F (May 13, 1:53 AM)43% (May 12, 1:53 PM)29.79 "Hg (May 14, 5:53 PM)
Average57 °F74%29.99 "Hg
* Reported May 12 11:53 AM — May 27 11:53 AM, Oakland, Weather by CustomWeather, © 2015

Note: Actual official high and low records may vary slightly from our data, if they occured in-between our weather recording intervals... More about our weather records

Advertising

Oakland weather history for previous 24 hours

 ConditionsComfort  
Time TempWeatherWind HumidityBarometerVisibility
11:53 AM
Wed, May 27
59 °FBroken clouds.10 mph69%30.03 "Hg10 mi
10:53 AM59 °FBroken clouds.12 mph72%30.03 "Hg10 mi
9:53 AM58 °FMore clouds than sun.10 mph72%30.04 "Hg10 mi
8:53 AM56 °FOvercast.9 mph77%30.03 "Hg10 mi
7:53 AM54 °FMore clouds than sun.10 mph80%30.03 "Hg10 mi
6:53 AM53 °FOvercast.14 mph83%30.01 "Hg10 mi
5:53 AM54 °FOvercast.14 mph80%30.00 "Hg10 mi
4:53 AM55 °FOvercast.14 mph80%29.99 "Hg10 mi
3:53 AM55 °FOvercast.13 mph80%30.00 "Hg10 mi
2:53 AM56 °FOvercast.8 mph77%30.00 "Hg10 mi
1:53 AM56 °FOvercast.10 mph77%30.00 "Hg10 mi
12:53 AM56 °FOvercast.9 mph77%30.01 "Hg10 mi
11:53 PM
Tue, May 26
56 °FOvercast.10 mph77%30.02 "Hg10 mi
10:53 PM57 °FMostly cloudy.10 mph74%30.01 "Hg10 mi
9:53 PM57 °FOvercast.13 mph78%30.02 "Hg10 mi
8:53 PM57 °FPartly sunny.13 mph74%30.00 "Hg10 mi
7:53 PM58 °FPartly sunny.13 mph72%29.99 "Hg10 mi
6:53 PM60 °FPartly sunny.14 mph67%29.99 "Hg10 mi
5:53 PM62 °FScattered clouds.15 mph62%29.99 "Hg10 mi
4:53 PM62 °FPassing clouds.15 mph62%29.99 "Hg10 mi
3:53 PM64 °FPassing clouds.17 mph58%30.00 "Hg10 mi
2:53 PM63 °FPassing clouds.17 mph60%30.01 "Hg10 mi
1:53 PM63 °FPassing clouds.15 mph58%30.01 "Hg10 mi
Weather by CustomWeather, © 2015

See weather overviewHow to use our weather pages